User: anonymous
Location: Unspecified
(0.0000°N, 0.0000°E)
Time: 08:33:21
(UTC+02:00)
Language:

Centaur D-1AR AC-41 - Orbit

View from above orbital plane
View from above orbital plane
View from above satellite
View from above satellite

Ground track
Ground track

The orbit data is extracted from the following two-line orbital elements,

1 10976U 78068B   14213.21178322 -.00000119  00000-0 -14600-2 0  4226
2 10976 021.4216 206.0189 7158004 332.6750 010.8975 02.22287986292872
Epoch (UTC): 01 August 2014 05:04:58
Eccentricity: 0.7158004
inclination: 21.4216°
perigee height: 670 km
apogee height: 36174 km
right ascension of ascending node: 206.0189°
argument of perigee: 332.6750°
revolutions per day: 2.22287986
mean anomaly at epoch: 10.8975°
orbit number at epoch: 29287

The dashed part of the orbit path shows where the satellite is in the earth's shadow,  

DLR